FW0042 Weather Reports


time (UTC)temp
C
wind
direction
speed
KPH
gust
KPH
rain 1hr
cm
rain 24hr
cm
rain mn
cm
humidity
%
barometer
mb
20260506201519 3 320 0.0 0.0 0.00 0.03 0.03 93 1015.1
20260506200024 3 320 0.0 0.0 0.00 0.03 0.03 93 1015.1
20260506194515 3 320 0.0 0.0 0.00 0.03 0.03 93 1015.0
20260506193016 3 320 0.0 0.0 0.00 0.03 0.03 93 1014.9
20260506191514 3 319 0.0 0.0 0.00 0.03 0.03 92 1014.8
20260506190013 3 319 0.0 0.0 0.00 0.03 0.03 92 1014.7
20260506184513 3 319 0.0 0.0 0.00 0.03 0.03 92 1014.6
20260506183011 3 319 0.0 0.0 0.00 0.03 0.03 91 1014.6
20260506181511 4 320 0.0 0.0 0.00 0.03 0.03 90 1014.6
20260506180011 5 320 0.0 0.0 0.00 0.03 0.03 91 1014.5
20260506174512 5 320 0.0 0.0 0.00 0.03 0.03 91 1014.5
20260506173010 5 320 0.0 0.0 0.00 0.03 0.03 91 1014.5
20260506171509 5 319 0.0 0.0 0.00 0.03 0.03 91 1014.4
20260506170009 5 350 0.0 0.0 0.00 0.03 0.03 91 1014.5
20260506164509 4 337 0.0 0.0 0.00 0.03 0.03 91 1014.4
20260506163012 4 236 0.0 0.0 0.00 0.03 0.03 91 1014.4
20260506161508 3 198 0.0 0.0 0.00 0.03 0.03 90 1014.3
20260506160012 3 198 0.0 0.0 0.00 0.03 0.03 90 1014.5
20260506154508 3 197 0.0 0.0 0.00 0.03 0.03 91 1014.6
20260506153006 3 197 0.0 0.0 0.00 0.03 0.03 90 1014.7
20260506151506 3 197 0.0 0.0 0.00 0.03 0.03 91 1014.8
20260506150007 3 170 0.0 0.0 0.00 0.03 0.03 90 1014.8
20260506144605 3 135 0.0 1.6 0.00 0.03 0.03 90 1014.8
20260506143013 3 123 0.0 0.0 0.00 0.03 0.03 89 1014.9
20260506141504 4 160 0.0 3.2 0.00 0.03 0.03 87 1015.1
20260506140003 4 165 0.0 0.0 0.00 0.03 0.03 87 1014.6
20260506134504 4 143 0.0 0.0 0.00 0.03 0.03 86 1014.6
20260506133002 4 157 0.0 0.0 0.00 0.03 0.03 86 1014.7
20260506130107 4 26 0.0 0.0 0.00 0.03 0.03 90 1014.9
20260506124601 3 5 0.0 0.0 0.00 0.03 0.03 89 1015.0
20260506123057 4 350 1.6 19.3 0.00 0.03 0.03 85 1014.7
20260506121604 5 144 0.0 0.0 0.00 0.03 0.03 83 1014.3
20260506120109 5 133 0.0 0.0 0.00 0.03 0.03 83 1014.1
20260506114610 5 129 0.0 4.8 0.00 0.03 0.03 83 1014.1
20260506113054 5 107 0.0 9.7 0.00 0.03 0.03 84 1014.3
20260506111554 5 157 0.0 3.2 0.00 0.03 0.03 87 1014.3
20260506110052 4 116 0.0 0.0 0.00 0.03 0.03 91 1014.3
20260506104551 3 324 0.0 0.0 0.00 0.03 0.03 91 1014.5
20260506103049 2 316 0.0 0.0 0.00 0.03 0.03 91 1014.5
20260506101548 2 5 0.0 0.0 0.00 0.03 0.03 88 1014.5
20260506100049 2 28 0.0 4.8 0.00 0.03 0.03 87 1014.5
20260506094547 3 9 0.0 19.3 0.00 0.03 0.03 84 1014.4
20260506093103 3 126 0.0 0.0 0.00 0.03 0.03 83 1013.9
20260506091546 4 140 0.0 0.0 0.00 0.03 0.03 84 1013.8
20260506090046 5 121 0.0 8.0 0.00 0.03 0.03 82 1013.7
20260506084541 5 96 0.0 1.6 0.00 0.05 0.03 83 1013.8
20260506083040 5 130 0.0 3.2 0.00 0.05 0.03 86 1014.0
20260506081533 3 121 0.0 4.8 0.00 0.05 0.03 86 1014.0
20260506073029 3 131 0.0 3.2 0.00 0.05 0.03 89 1014.1
20260506071526 3 118 0.0 0.0 0.00 0.05 0.03 90 1014.1
20260506061510 -17 0.0 0.0 0.00 0.05 0.03 1014.0
20260506044545 -17 0.0 0.0 0.00 0.05 0.03 1013.6
20260506043039 -17 0.0 0.0 0.00 0.05 0.03 1013.9
20260506041535 -17 0.0 0.0 0.00 0.05 0.03 1013.9
20260506040030 -17 0.0 0.0 0.00 0.05 0.03 1013.9
20260506034526 -17 0.0 0.0 0.00 0.05 0.03 1013.9
20260506033021 -17 0.0 0.0 0.00 0.05 0.03 1013.9
20260506031516 -17 0.0 0.0 0.00 0.05 0.03 1013.7
20260506030014 -17 0.0 0.0 0.00 0.05 0.03 1013.6
20260506024507 -17 0.0 0.0 0.00 0.05 0.03 1013.8
20260506023002 1 311 0.0 0.0 0.00 0.05 0.03 95 1013.9
20260506021503 1 311 0.0 0.0 0.00 0.05 0.03 95 1013.9
20260506020003 1 311 0.0 0.0 0.00 0.05 0.03 95 1013.9
20260506014502 1 311 0.0 0.0 0.00 0.05 0.03 95 1014.0
20260506013100 1 311 0.0 0.0 0.00 0.05 0.03 94 1014.1
20260506011602 1 312 0.0 0.0 0.00 0.05 0.03 95 1014.0
20260506010058 1 312 0.0 0.0 0.00 0.05 0.03 94 1014.0
20260506004557 1 312 0.0 0.0 0.03 0.05 0.03 94 1014.0
20260506003058 1 312 0.0 0.0 0.03 0.05 0.03 94 1014.0
20260506001606 1 312 0.0 0.0 0.03 0.05 0.03 94 1013.9
20260506000119 0 312 0.0 0.0 0.03 0.05 0.03 94 1014.0
20260505234556 0 312 0.0 0.0 0.00 0.03 0.00 94 1014.0
20260505233054 0 312 0.0 0.0 0.00 0.03 0.00 93 1013.9
20260505231555 0 302 0.0 0.0 0.00 0.03 0.00 93 1014.0
20260505230051 0 302 0.0 0.0 0.00 0.03 0.00 93 1014.0
20260505224550 1 302 0.0 0.0 0.00 0.03 0.00 93 1014.0
20260505223045 1 302 0.0 0.0 0.00 0.03 0.00 93 1013.9
20260505221550 1 302 0.0 0.0 0.00 0.03 0.00 92 1013.9
20260505220048 1 302 0.0 0.0 0.00 0.03 0.00 92 1013.8
20260505214546 1 302 0.0 0.0 0.00 0.03 0.03 92 1013.7
20260505213039 1 302 0.0 0.0 0.00 0.03 0.03 92 1013.6
20260505211607 1 302 0.0 0.0 0.00 0.03 0.03 92 1013.5
20260505210042 1 302 0.0 0.0 0.00 0.03 0.03 92 1013.4
20260505204548 2 302 0.0 0.0 0.00 0.03 0.03 92 1013.4
20260505203035 2 302 0.0 0.0 0.00 0.03 0.03 92 1013.3